Deer Park, WA

2:24 PM PST on November 24, 2017 (GMT -0800)
Deer Park

Weather History for KDEW - August, 2014

Change the Weather History Date:

Sunday, August 10, 2014

  Actual Average Record
Temperature  
Mean Temperature 69 °F 66 °F  
Max Temperature 94 °F 85 °F 94 °F (2014)
Min Temperature 44 °F 48 °F 43 °F (2012)
Degree Days  
Heating Degree Days 0 2  
Month to date heating degree days 0 16  
Since 1 June heating degree days 224 284  
Since 1 July heating degree days 18 84  
Cooling Degree Days 4 3  
Month to date cooling degree days 76 30  
Year to date cooling degree days 288 127  
Since 1 June cooling degree days 288 124  
Growing Degree Days 20 (Base 50)    
Moisture  
Dew Point 39 °F    
Average Humidity 44    
Maximum Humidity 76    
Minimum Humidity 11    
Precipitation  
Precipitation 0.00 in 0.02 in 0.36 in (2013)
Month to date precipitation T 0.15  
Year to date precipitation 13.68 12.75  
Sea Level Pressure  
Sea Level Pressure 30.08 in    
Wind  
Wind Speed 4 mph (North)    
Max Wind Speed 13 mph    
Max Gust Speed 17 mph    
Visibility 10 miles    
Events      
T = Trace of Precipitation, MM = Missing Value Source: NWS Daily Summary

Daily Weather History Graph

Daily Weather History Graph

Search for Another Location

Airport or City:

Trip Planner

Search our weather history database for the weather conditions in past years. The results will help you decide how hot, cold, wet, or windy it might be!

Date:

Astronomy

Aug. 10, 2014 Rise Set
Actual Time 5:38 AM PDT 8:11 PM PDT
Civil Twilight 5:03 AM PDT 8:45 PM PDT
Nautical Twilight 4:18 AM PDT 9:29 PM PDT
Astronomical Twilight 3:27 AM PDT 10:20 PM PDT
Moon 7:54 PM PDT (8/10) 5:40 AM PDT (8/10)
Length of Visible Light 15h 42m
Length of Day
14h 33m
Full, 100% of the Moon is Illuminated
Aug 10
Full
Aug 17
Last Quarter
Aug 25
New
Sep 2
First Quarter
Sep 8
Full

Hourly Weather History & Observations

Time (PDT) Temp. Windchill Dew Point Humidity Pressure Visibility Wind Dir Wind Speed Gust Speed Precip Events Conditions
12:53 AM 55.0 °F - 42.1 °F 62% 30.08 in 10.0 mi West 4.6 mph - N/A   Clear
1:53 AM 50.0 °F - 39.0 °F 66% 30.08 in 10.0 mi Calm Calm - N/A   Clear
2:53 AM 48.9 °F - 37.9 °F 66% 30.09 in 10.0 mi North 3.5 mph - N/A   Clear
3:53 AM 46.0 °F 44.8 °F 37.9 °F 73% 30.10 in 10.0 mi NNW 3.5 mph - N/A   Clear
4:53 AM 48.9 °F - 39.0 °F 69% 30.10 in 10.0 mi Calm Calm - N/A   Clear
5:53 AM 46.0 °F 44.8 °F 39.0 °F 76% 30.12 in 10.0 mi North 3.5 mph - N/A   Clear
7:53 AM 66.0 °F - 45.0 °F 47% 30.12 in 10.0 mi North 4.6 mph - N/A   Clear
8:53 AM 72.0 °F - 44.1 °F 37% 30.14 in 10.0 mi NNE 6.9 mph - N/A   Clear
9:53 AM 77.0 °F - 45.0 °F 32% 30.14 in 10.0 mi Variable 5.8 mph - N/A   Clear
10:53 AM 81.0 °F - 45.0 °F 28% 30.14 in 10.0 mi Calm Calm - N/A   Clear
11:53 AM 86.0 °F - 41.0 °F 20% 30.13 in 10.0 mi Calm Calm - N/A   Clear
1:53 PM 91.9 °F - 36.0 °F 14% 30.09 in 10.0 mi NNE 12.7 mph 17.3 mph N/A   Clear
2:53 PM 91.9 °F - 33.1 °F 12% 30.08 in 10.0 mi Variable 6.9 mph - N/A   Clear
3:53 PM 93.0 °F - 30.9 °F 11% 30.07 in 10.0 mi Variable 3.5 mph - N/A   Clear
5:53 PM 91.0 °F - 33.1 °F 13% 30.04 in 10.0 mi Variable 3.5 mph - N/A   Clear
6:53 PM 90.0 °F - 34.0 °F 14% 30.03 in 10.0 mi ENE 5.8 mph - N/A   Clear
7:53 PM 78.1 °F - 39.9 °F 25% 30.02 in 10.0 mi NNE 3.5 mph - N/A   Clear
9:53 PM 66.9 °F - 41.0 °F 39% 30.03 in 8.0 mi North 4.6 mph - N/A   Clear
10:53 PM 64.0 °F - 42.1 °F 45% 30.03 in 10.0 mi Calm Calm - N/A   Clear
11:53 PM 64.0 °F - 42.1 °F 45% 30.03 in 10.0 mi NNW 6.9 mph - N/A   Clear